Location: Cieszkowy
(50.3290°N, 20.5336°E)
Time: 14:10:24
(UTC+00:00)

H-2A R/B - Pass Details

Date: 15 June 2024
Orbit: 553 x 569 km, 98.1° (Epoch: 14 July)

Event Time Altitude Azimuth Distance (km) Brightness Sun altitude
Rises 00:25:24 0° 16° (NNE) 2,746 8.8 -12.6°
Reaches altitude 10° 00:27:34 10° 20° (NNE) 1,847 7.5 -12.5°
Maximum altitude 00:31:32 62° 102° (ESE) 628 3.6 -12.2°
Enters shadow 00:34:40 16° 182° (S) 1,516 5.0 -12.0°
